sat.trackr.live / text

‹ back to catalog

STARLINK-35650

NORAD 66573 · 2025-268S

PAYLOAD ACTIVE UNKNOWN

§ Identity

Operator
Country
US
Launch date
2025-11-21
Launch site
AFETR
Launch vehicle
Mass (kg)
RCS (m²)

Purposes: comms

External: N2YO · Heavens-Above · Gunter

§ Orbital elements

Epoch: 2026-09-19T11:23:03.504768Z

Period
94.27 min
Inclination
43.0010°
Eccentricity
0.0001700
Mean motion
15.27592095 rev/d
Perigee alt
481.8 km
Apogee alt
484.2 km
Semi-major
6,861.1 km
B*
4.1976e-4
RAAN
332.9252°
Arg perigee
274.8657°
Mean anomaly
85.2000°
Rev number
4,759

§ Raw data

STARLINK-356501 66573U 25268S   26262.47434612  .00011311  00000+0  41976-3 0  99952 66573  43.0010 332.9252 0001700 274.8657  85.2000 15.27592095 47595

JSON: /api/v1/satellites/66573 · /tle

For live sub-satellite position, see the globe view (requires WebGL).

§ Visibility from observer

Set your observer location to see the next 7 days of passes ≥ 10°. The values pass through the URL so the page stays shareable.

No JS? Fill the form by hand. The geolocation button needs JavaScript.